This is the latest recevied weather packets stored in our database for station/object SPDRWX. If no packets are shown the sender has not sent any weather packets the latest 10 day(s).
| Time | Temp. | Humidity | Pressure | Rain* | Wind** | Luminosity | Snow |
|---|---|---|---|---|---|---|---|
| 1778220372 | 10.56° C | 49% | 1017.1 hPa | 0 mm | - | - | - |
| 1778220073 | 11.11° C | 48% | 1017.2 hPa | 0 mm | - | - | - |
| 1778218869 | 11.67° C | 43% | 1017.1 hPa | 0 mm | - | - | - |
| 1778218265 | 12.22° C | 44% | 1017.2 hPa | 0 mm | - | - | - |
| 1778217963 | 12.22° C | 44% | 1017.2 hPa | 0 mm | - | - | - |
| 1778216758 | 12.78° C | 44% | 1017.2 hPa | 0 mm | - | - | - |
| 1778216457 | 12.78° C | 44% | 1017.2 hPa | 0 mm | - | - | - |
| 1778215553 | 12.78° C | 43% | 1017.3 hPa | 0 mm | - | - | - |
| 1778214950 | 13.33° C | 43% | 1017.2 hPa | 0 mm | - | - | - |
| 1778214349 | 13.33° C | 42% | 1017.3 hPa | 0 mm | - | - | - |
| 1778214048 | 13.33° C | 42% | 1017.2 hPa | 0 mm | - | - | - |
| 1778213745 | 13.33° C | 42% | 1017.2 hPa | 0 mm | - | - | - |
| 1778213142 | 13.89° C | 41% | 1017.1 hPa | 0 mm | - | - | - |
| 1778212842 | 13.89° C | 41% | 1017.1 hPa | 0 mm | - | - | - |
| 1778212540 | 13.89° C | 41% | 1016.9 hPa | 0 mm | - | - | - |
| 1778211334 | 14.44° C | 40% | 1016.8 hPa | 0 mm | - | - | - |
| 1778211034 | 14.44° C | 40% | 1016.7 hPa | 0 mm | - | - | - |
| 1778210733 | 14.44° C | 40% | 1016.7 hPa | 0 mm | - | - | - |
| 1778210130 | 14.44° C | 39% | 1016.6 hPa | 0 mm | - | - | - |
| 1778208623 | 15° C | 37% | 1016.4 hPa | 0 mm | - | - | - |
| 1778208321 | 15° C | 37% | 1016.4 hPa | 0 mm | - | - | - |
| 1778207424 | 15.56° C | 34% | 1016.4 hPa | 0 mm | - | - | - |
| 1778207117 | 15.56° C | 34% | 1016.3 hPa | 0 mm | - | - | - |
| 1778206815 | 15.56° C | 33% | 1016.2 hPa | 0 mm | - | - | - |
| 1778206049 | 16.11° C | 31% | 1016.1 hPa | 0 mm | - | - | - |
* Rain since midnight (hover to see other rain measurements)
** Current wind speed in m/s (hover to see current wind gust speed)